Location: Bennemühlen
(52.5740°N, 9.7135°E)
Time: 04:49:03
(UTC+00:00)

PKM - Pass Details

Date: 19 May 2025
Orbit: 413 x 13724 km, 55.3° (Epoch: 14 June)

Event Time Altitude Azimuth Distance (km) Brightness Sun altitude
Rises 22:18:02 0° 250° (WSW) 2,361 7.0 -16.3°
Reaches altitude 10° 22:19:43 10° 251° (WSW) 1,501 6.0 -16.4°
Maximum altitude 22:22:29 86° 337° (NNW) 522 3.6 -16.5°
Drops below altitude 10° 22:27:29 10° 70° (ENE) 2,680 7.4 -16.6°
Sets 22:31:36 0° 71° (ENE) 4,653 8.6 -16.8°
